Weather History for Niagara Falls, NY

Change the Weather History Date:

Sunday, November 4, 2012

  Actual Average Record
Temperature  
Mean Temperature 34 °F -  
Max Temperature 36 °F 49 °F 68 °F (2008)
Min Temperature 33 °F 34 °F 20 °F (1989)
Degree Days  
Heating Degree Days 30    
Moisture  
Dew Point 26 °F    
Average Humidity 70    
Maximum Humidity 82    
Minimum Humidity 65    
Precipitation  
Precipitation 0.00 in - - ()
Sea Level Pressure  
Sea Level Pressure 30.14 in    
Wind  
Wind Speed 8 mph (NNW)    
Max Wind Speed 14 mph    
Max Gust Speed -    
Visibility 10 miles    
Events Snow    
Averages and records for this station are not official NWS values.
T = Trace of Precipitation, MM = Missing Value Source: NWS Daily Summary

Daily Weather History Graph

Daily Weather History Graph

Search for Another Location

Airport:

Trip Planner

Search our weather history database for the weather conditions in past years. The results will help you decide how hot, cold, wet, or windy it might be!

Date:

Astronomy

Nov. 04, 2012 Rise Set
Actual Time 6:54 AM EST 5:03 PM EST
Civil Twilight 6:25 AM EST 5:32 PM EST
Nautical Twilight 5:51 AM EST 6:06 PM EST
Astronomical Twilight 5:18 AM EST 6:39 PM EST
Moon 9:38 PM EST (11/4) 11:39 AM EST (11/4)
Length of Visible Light 11h 07m
Length of Day
10h 08m
Waning Gibbous, 72% of the Moon is Illuminated
Nov 4
Waning Gibbous
Nov 6
Last Quarter
Nov 13
New
Nov 20
First Quarter
Nov 28
Full

Hourly Weather History & Observations

Time (EST) Temp. Windchill Dew Point Humidity Pressure Visibility Wind Dir Wind Speed Gust Speed Precip Events Conditions
12:53 AM 36.0 °F 30.3 °F 26.1 °F 67% 30.13 in 10.0 mi NNW 6.9 mph - N/A   Overcast
1:53 AM 36.0 °F 32.1 °F 27.0 °F 70% 30.12 in 10.0 mi NNW 4.6 mph - N/A   Overcast
1:53 AM 36.0 °F 29.6 °F 26.1 °F 67% 30.13 in 10.0 mi NW 8.1 mph - N/A   Overcast
2:53 AM 36.0 °F 30.3 °F 26.1 °F 67% 30.12 in 10.0 mi North 6.9 mph - N/A   Overcast
3:53 AM 35.1 °F 30.1 °F 27.0 °F 72% 30.13 in 10.0 mi NNE 5.8 mph - N/A   Overcast
4:53 AM 34.0 °F 28.0 °F 28.9 °F 82% 30.15 in 9.0 mi NW 6.9 mph - 0.00 in   Overcast
5:53 AM 34.0 °F 26.0 °F 28.0 °F 79% 30.15 in 10.0 mi NW 10.4 mph - 0.00 in   Overcast
6:53 AM 34.0 °F 26.0 °F 27.0 °F 75% 30.14 in 10.0 mi NNW 10.4 mph - N/A   Overcast
6:59 AM 33.8 °F 25.3 °F 26.6 °F 75% 30.11 in 10.0 mi NNW 11.5 mph - N/A   Overcast
7:36 AM 33.8 °F 27.7 °F 26.6 °F 75% 30.11 in 8.0 mi NNW 6.9 mph - 0.00 in Snow Light Snow
7:53 AM 34.0 °F 27.2 °F 27.0 °F 75% 30.15 in 7.0 mi NNW 8.1 mph - 0.00 in Snow Light Snow
8:08 AM 33.8 °F 26.4 °F 26.6 °F 75% 30.11 in 9.0 mi NNW 9.2 mph - 0.00 in   Overcast
8:53 AM 34.0 °F 28.0 °F 26.1 °F 73% 30.16 in 10.0 mi North 6.9 mph - 0.00 in   Overcast
9:06 AM 33.8 °F 25.3 °F 26.6 °F 75% 30.12 in 10.0 mi NNW 11.5 mph - N/A   Overcast
9:53 AM 35.1 °F 27.4 °F 26.1 °F 70% 30.16 in 10.0 mi NW 10.4 mph - N/A   Overcast
10:53 AM 35.1 °F 27.4 °F 25.0 °F 67% 30.16 in 10.0 mi NW 10.4 mph - N/A   Overcast
11:48 AM 35.6 °F 28.0 °F 24.8 °F 65% 30.11 in 10.0 mi NNW 10.4 mph - N/A   Overcast
11:53 AM 35.1 °F 29.3 °F 25.0 °F 67% 30.15 in 10.0 mi NNW 6.9 mph - N/A   Overcast
12:53 PM 35.1 °F 25.9 °F 25.0 °F 67% 30.14 in 10.0 mi WNW 13.8 mph - N/A   Overcast
1:53 PM 35.1 °F 28.6 °F 25.0 °F 67% 30.14 in 10.0 mi NW 8.1 mph - N/A   Overcast
2:53 PM 35.1 °F 27.4 °F 25.0 °F 67% 30.13 in 10.0 mi NW 10.4 mph - N/A   Overcast
3:53 PM 35.1 °F 28.6 °F 25.0 °F 67% 30.14 in 10.0 mi NW 8.1 mph - N/A   Overcast
4:53 PM 35.1 °F 28.6 °F 26.1 °F 70% 30.14 in 10.0 mi NW 8.1 mph - N/A   Overcast
5:53 PM 35.1 °F 29.3 °F 26.1 °F 70% 30.14 in 10.0 mi WNW 6.9 mph - N/A   Overcast
6:53 PM 36.0 °F 29.6 °F 26.1 °F 67% 30.15 in 10.0 mi NNW 8.1 mph - N/A   Overcast
7:30 PM 35.6 °F 29.9 °F 26.6 °F 70% 30.11 in 10.0 mi North 6.9 mph - N/A   Overcast
7:53 PM 35.1 °F 30.1 °F 25.0 °F 67% 30.15 in 10.0 mi North 5.8 mph - N/A   Overcast
8:21 PM 35.6 °F 29.9 °F 26.6 °F 70% 30.11 in 10.0 mi North 6.9 mph - N/A   Overcast
8:53 PM 35.1 °F 26.4 °F 26.1 °F 70% 30.16 in 10.0 mi North 12.7 mph - N/A   Overcast
9:53 PM 34.0 °F 28.8 °F 25.0 °F 70% 30.16 in 10.0 mi North 5.8 mph - N/A   Overcast
10:53 PM 34.0 °F 28.8 °F 24.1 °F 67% 30.15 in 10.0 mi NNW 5.8 mph - N/A   Overcast